Regional Weather Roundup
Issued by NWS

Home | Current Version | Previous Version | Text Only | Print | Product List | Glossary On
Versions: 1 2 3 4 5 6 7 8 9 10 11 12 13 14 15 16 17 18 19 20 21 22 23 24 25 26 27
000
ASUS45 KTFX 280810
RWRMT
MONTANA REGIONAL WEATHER ROUNDUP
NATIONAL WEATHER SERVICE GREAT FALLS MT
200 AM MDT SUN AUG 28 2016

NOTE: "FAIR" INDICATES FEW OR NO CLOUDS BELOW 12000 FEET WITH NO
SIGNIFICANT WEATHER AND/OR OBSTRUCTIONS TO VISIBILITY.

MTZ001>007-043-280900-
WEST OF THE DIVIDE

CITY           SKY/WX    TMP DP  RH WIND       PRES   REMARKS
KALISPELL      PTCLDY    70  41  34 SW9       29.83R
MISSOULA       MOCLDY    72  42  34 W7        29.91R
BUTTE          PTCLDY    54  31  41 CALM      30.02R
MULLAN PASS    CLEAR     55  39  54 SW8G17    30.01R
EUREKA           N/A     68  41  37 E8        29.81R
HAMILTON         N/A     61  43  51 CALM      29.93R
LIBBY            N/A     64  43  45 CALM      29.82R
RONAN            N/A     66  47  50 CALM      29.94R
$$

MTZ008-052>055-280900-
SOUTHWEST MONTANA

CITY           SKY/WX    TMP DP  RH WIND       PRES   REMARKS
BOZEMAN        CLOUDY    58  35  42 S7        29.95R
DILLON         CLOUDY    60  28  29 S13       30.01R
W YELLOWSTONE  CLEAR     55  23  28 CALM      30.15S
ENNIS          CLOUDY    61  25  25 S10       30.07R
THREE FORKS      N/A     55  -4   9 CALM      29.94R
TWIN BRIDGES     N/A     62  29  29 E5        29.99R
$$

MTZ009-010-012-014-046-048-049-054-280900-
EAST SLOPES AND CENTRAL MONTANA

CITY           SKY/WX    TMP DP  RH WIND       PRES   REMARKS
CUT BANK       MOCLDY    65  41  41 W13       29.82R
GREAT FALLS    CLOUDY    71  37  28 SW14      29.82S
MALMSTROM AFB  CLOUDY    65  40  39 MISG      29.82S
HELENA         PTCLDY    68  39  34 W5        29.90R
CHOTEAU          N/A     64  37  36 SW5       29.85S
CONRAD           N/A     60  46  59 SE2       29.86R
$$

MTZ011-013-016-021-045-047-050-051-280900-
NORTH CENTRAL MONTANA

CITY           SKY/WX    TMP DP  RH WIND       PRES   REMARKS
HAVRE          CLOUDY    67  45  45 NW5       29.75R
LEWISTOWN      MOCLDY    66  42  41 SE5       29.88S
N BAR RANCH      N/A     63  36  36 SW8       29.92F
CHINOOK          N/A     64  48  55 CALM      29.74R
$$

MTZ017>020-022>027-061-062-280900-
NORTHEAST MONTANA

CITY           SKY/WX    TMP DP  RH WIND       PRES   REMARKS
GLASGOW        CLOUDY    64  42  44 SE9       29.75R
JORDAN           N/A     63  40  42 W6        29.79R
SIDNEY         PTCLDY    60  47  61 SW5       29.81S
WOLF POINT     CLOUDY    58  42  55 N5        29.77S
POPLAR           N/A     63  43  48 CALM      29.77F
SCOBEY           N/A     58  39  49 CALM      29.78S
$$

MTZ028>42-056>058-280900-
SOUTHCENTRAL AND SOUTHEAST MONTANA

CITY           SKY/WX    TMP DP  RH WIND       PRES   REMARKS
BAKER          CLEAR     58  50  75 E8        29.88S
BILLINGS       PTCLDY    70  33  25 SW15      29.86S
LIVINGSTON     CLEAR     69  30  23 W16       29.93R
MILES CITY     PTCLDY    65  45  48 S10       29.81F
FORSYTH          N/A     68  37  32 CALM      29.79S
LAUREL           N/A     64  33  31 SW3       29.88R
ROUNDUP          N/A     63  36  36 S7        29.79S
$$

REGIONAL REPORTS...DAKOTAS

CITY           SKY/WX    TMP DP  RH WIND       PRES   REMARKS
WILLISTON      CLEAR     66  45  46 S6        29.81S
MINOT          CLEAR     57  50  77 SE6       29.86F
DICKINSON      CLEAR     57  51  80 S9        29.87F
CROSBY           N/A     63  46  55 S10       29.82S
WATFORD CITY     N/A     66  50  55 S13G22    29.83S
BISMARCK       CLEAR     57  50  77 NE7       29.91F
GRAND FORKS    CLEAR     58  56  93 S7        29.96F
FARGO          CLEAR     61  58  90 SE9       29.98F
BUFFALO SD       N/A     64  55  72 CALM      29.83S
RAPID CITY     CLEAR     63  51  65 S6        29.92F
$$

REGIONAL REPORTS...WYOMING/IDAHO/WASHINGTON

CITY           SKY/WX    TMP DP  RH WIND       PRES   REMARKS
GILLETTE       CLEAR     58  38  47 S8        29.95S
SHERIDAN       CLOUDY    49  40  71 CALM      29.92S
BUFFALO WY     CLOUDY    62  27  26 W3        29.99S
CODY           CLEAR     68  28  22 W5        30.01S
YELLOWSTONE LA   N/A     36  28  73 NW3       30.25S
IDAHO FALLS    CLEAR     58  32  37 SW12      30.04R
SALMON         PTCLDY    64  34  32 CALM      29.95R
BOISE          CLEAR     70  31  23 SE8       29.91R
SPOKANE        PTCLDY    62  41  46 SW17      29.86R
$$

REGIONAL REPORTS...ALBERTA

CITY           SKY/WX    TMP DP  RH WIND       PRES   REMARKS
EDMONTON       CLOUDY    50  48  93 W14G23    29.76R
CALGARY        LGT RAIN  52  46  82 N20G28    29.84R
LETHBRIDGE     PTCLDY    46  45  93 W12       29.83R
MEDICINE HAT   CLEAR     54  52  94 S3        29.75S
WATERTON GATE    N/A     45  41  87 S2          N/A
CARDSTON         N/A     48  45  87 SW5         N/A
MILK RIVER       N/A     54  46  76 NW3         N/A
ONEFOUR          N/A     61  54  77 NW14        N/A
$$

REGIONAL REPORTS...SASKATCHEWAN

CITY           SKY/WX    TMP DP  RH WIND       PRES   REMARKS
SWIFT CURRENT  CLOUDY    66  48  52 SW14      29.71R
REGINA         CLOUDY    63  46  55 SE16G23   29.73F
SASKATOON      MOCLDY    64  52  63 S13       29.59S
VAL MARIE        N/A     64  45  48 S8          N/A
ROCKGLEN         N/A     61  43  51 S9          N/A
ASSINIBOIA       N/A     55  52  88 W17G23      N/A
$$




USA.gov is the U.S. government's official web portal to all federal, state and local government web resources and services.